Flag for French Polynesia Weather past 2 weeks in Papeete, Tahiti, French Polynesia

Now
77 °F

Warm.


Feels Like: 79 °F
Forecast: 76 / 84 °F
Wind: 7 mph from East

Location: Tahiti-Faaa

Current Time: Sep 19, 2014 at 4:41:21 AM

Latest Report: Sep 19, 2014 at 4:00 AM


Visibility: N/A

Pressure: 29.92 "Hg

Humidity: 69%

Dew point: 66 °F

Location of PapeeteLocation

Historic Weather in Papeete — Graph

°F

Papeete temperature yesterday

Maximum temperature yesterday: 84 °F (at 10:00 AM)
Minimum temperature yesterday: 75 °F (at 2:00 AM)
Average temperature yesterday: 80 °F

Past Weeks' High & Low Weather Summary

 TemperatureHumidityPressure
High86 °F (Sep 6, 1:30 PM)94% (Sep 9, 12:00 AM)30.04 "Hg (Sep 9, 12:00 AM)
Low70 °F (Sep 17, 5:00 AM)55% (Sep 6, 3:00 PM)29.83 "Hg (Sep 12, 3:00 PM)
Average78 °F75%29.93 "Hg
* Reported Sep 4 3:00 AM — Sep 19 3:30 AM, Papeete, Weather by CustomWeather, © 2014

Note: Actual official high and low records may vary slightly from our data, if they occured in-between our weather recording intervals... More about our weather records

Advertising

Papeete weather history for previous 24 hours

 ConditionsComfort  
Time TempWeatherWind HumidityBarometerVisibility
3:30 AM
Sep 19
77 °FWarm.6 mph69%29.92 "HgN/A
3:00 AM77 °FPassing clouds.7 mph69%29.92 "HgN/A
2:30 AM77 °FPassing clouds.6 mph74%29.92 "HgN/A
2:00 AM77 °FPassing clouds.7 mph69%29.92 "HgN/A
1:40 AM77 °FPassing clouds.7 mph69%29.92 "HgN/A
1:00 AM79 °FPassing clouds.7 mph70%29.95 "HgN/A
12:30 AM79 °FPassing clouds.7 mph70%29.95 "HgN/A
12:00 AM79 °FPassing clouds.7 mph65%29.98 "HgN/A
11:30 PM
Sep 18
79 °FPassing clouds.8 mph65%29.98 "HgN/A
11:00 PM79 °FPassing clouds.5 mph65%29.98 "HgN/A
10:30 PM79 °FPassing clouds.7 mph65%29.98 "HgN/A
10:00 PM79 °FPartly cloudy.6 mph70%29.98 "HgN/A
9:30 PM79 °FPassing clouds.8 mph70%29.98 "HgN/A
9:00 PM79 °FPassing clouds.7 mph70%29.98 "HgN/A
8:38 PM79 °FPartly cloudy.8 mph70%29.98 "HgN/A
8:00 PM77 °FScattered showers. Partly cloudy.7 mph79%29.98 "HgN/A
7:30 PM75 °FScattered showers. Partly cloudy.7 mph83%29.98 "HgN/A
7:00 PM75 °FSprinkles. Partly cloudy.7 mph89%29.98 "Hg5 mi
6:30 PM77 °FSprinkles. Partly cloudy.10 mph89%29.95 "Hg5 mi
6:00 PM79 °FRain showers. Passing clouds.17 mph79%29.95 "Hg5 mi
5:46 PM81 °FRain. Partly sunny.12 mph79%29.95 "Hg5 mi
5:00 PM82 °FScattered showers. Scattered clouds.10 mph70%29.92 "HgN/A
4:30 PM82 °FPassing clouds.10 mph66%29.92 "HgN/A
4:00 PM84 °FPassing clouds.12 mph66%29.89 "HgN/A
3:30 PM84 °FPassing clouds.13 mph66%29.89 "HgN/A
3:14 PM84 °FScattered clouds.13 mph66%29.89 "HgN/A
2:30 PM84 °FScattered clouds.14 mph66%29.89 "HgN/A
2:00 PM84 °FScattered clouds.15 mph66%29.89 "HgN/A
1:30 PM84 °FScattered clouds.16 mph66%29.92 "HgN/A
1:00 PM82 °FScattered clouds.18 mph74%29.92 "HgN/A
12:30 PM84 °FScattered clouds.17 mph70%29.92 "HgN/A
12:00 PM84 °FScattered clouds.17 mph66%29.95 "HgN/A
11:30 AM84 °FScattered clouds.18 mph66%29.95 "HgN/A
11:00 AM84 °FScattered clouds.18 mph66%29.95 "HgN/A
10:30 AM82 °FScattered clouds.18 mph70%29.95 "HgN/A
10:00 AM84 °FScattered showers. Scattered clouds.14 mph66%29.98 "HgN/A
9:30 AM82 °FPartly sunny.14 mph66%29.98 "HgN/A
9:00 AM81 °FPartly sunny.8 mph70%29.98 "HgN/A
8:30 AM81 °FPartly sunny.3 mph70%29.98 "HgN/A
8:00 AM79 °FPartly sunny.1 mph74%29.98 "HgN/A
7:30 AM79 °FBroken clouds.No wind74%29.95 "HgN/A
7:00 AM77 °FBroken clouds.2 mph79%29.95 "HgN/A
6:30 AM77 °FPartly sunny.2 mph79%29.95 "HgN/A
6:00 AM77 °FPartly sunny.No wind74%29.95 "HgN/A
5:30 AM77 °FPassing clouds.No wind74%29.92 "HgN/A
5:00 AM77 °FOvercast.2 mph74%29.92 "HgN/A
4:30 AM75 °FMostly cloudy.3 mph78%29.92 "HgN/A
4:00 AM77 °FPassing clouds.2 mph74%29.89 "HgN/A
Weather by CustomWeather, © 2014

See weather overviewHow to use our weather pages